Tracking 18794 objects as of 23-September-2017
HD Live streaming from Space Station
objects crossing your sky now

PEGASUS

Track PEGASUS now!
10-day predictions
PEGASUS is classified as:


NORAD ID: 42784
Int'l Code: 2017-036V
Perigee: 502.9 km
Apogee: 518.1 km
Inclination: 97.4 °
Period: 94.7 minutes
Semi major axis: 6881 km
RCS: Unknown
Launch date: June 23, 2017
Source: (ASRA)
Launch site: SIRHARIKOTA (SRI)
Uplink (MHz):
Downlink (MHz): 436.670
Beacon (MHz):
Mode: 9600bps GMSK
Call sign: ON03AT
Status: Active

aabbcc
Your satellite tracking list
Your tracking list is empty





NASA's NSSDC Master Catalog

Two Line Element Set (TLE):
1 42784U 17036V   17265.73781290  .00001375  00000-0  65409-4 0  9994
2 42784  97.4405 324.4014 0011085 296.5560  63.4539 15.20823625 13853
Source of the keplerian elements: AFSPC